This demonstration page uses our WeatherBlox Daily Observations layout. Learn more.

Left ArrowRight Arrow

34.16533, -84.80231

Hourly Observations for April 22, 2016

Temp ( °F °C ) Dew Point ( °F °C ) Humidity (%) Winds ( mph kmh ) Pressure ( in mb ) Visibility ( mi km ) Precip ( " mm )
12:53 am 00:53 Cloudy 62 16.7 61 16.1 96 96 SSE 9 15 30.00 1016 10 16 0.00 0.00
1:53 am 01:53 Cloudy 62 16.7 61 16.1 96 96 S 3 6 30.00 1016 10 16 0.00 0.00
2:13 am 02:13 Cloudy 62 16.7 61 16.1 96 96 Calm 30.03 1017 10 16 0.00 0.00
2:28 am 02:28 Cloudy 62 16.7 61 16.1 96 96 SSE 5 7 30.03 1017 10 16 0.00 0.00
2:53 am 02:53 Cloudy 62 16.7 61 16.1 96 96 Calm 29.98 1015 10 16 0.00 0.00
3:53 am 03:53 Cloudy 62 16.7 60 15.6 93 93 SSE 3 6 29.96 1015 10 16 0.00 0.00
4:53 am 04:53 Mostly Clear 61 16.1 60 15.6 97 97 Calm 29.96 1015 9 14 0.00 0.00
5:25 am 05:25 Mostly Clear 60 15.6 60 15.6 100 100 ESE 3 6 30.00 1016 10 16 0.00 0.00
5:53 am 05:53 Partly Cloudy 61 16.1 60 15.6 97 97 Calm 29.95 1014 10 16 0.00 0.00
6:53 am 06:53 Partly Cloudy 61 16.1 60 15.6 97 97 SSE 3 6 29.94 1014 10 16 0.00 0.00
7:53 am 07:53 Cloudy 62 16.7 60 15.6 93 93 SSE 3 6 29.96 1015 10 16 0.00 0.00
8:02 am 08:02 Cloudy 62 16.7 61 16.1 96 96 Calm 30.00 1016 10 16 0.00 0.00
8:33 am 08:33 Cloudy with Light Rain 62 16.7 61 16.1 96 96 S 5 7 30.00 1016 9 14 0.01 0.25
8:46 am 08:46 Cloudy with Heavy Rain 62 16.7 61 16.1 96 96 S 6 9 30.00 1016 2 2 0.16 4.06
8:53 am 08:53 Cloudy with Heavy Rain 62 16.7 61 16.1 96 96 VRB 5 7 29.98 1015 1 1 0.23 5.84
8:56 am 08:56 Cloudy with Rain 62 16.7 61 16.1 96 96 S 3 6 30.00 1016 2 2 0.00 0.03
8:59 am 08:59 Cloudy with Light Rain 62 16.7 61 16.1 96 96 SSW 5 7 30.00 1016 3 5 0.00 0.03
9:06 am 09:06 Cloudy with Light Rain 62 16.7 62 16.7 100 100 S 3 6 30.00 1016 6 10 0.01 0.25
9:31 am 09:31 Cloudy with Light Rain 63 17.2 62 16.7 97 97 Calm 30.00 1016 8 13 0.01 0.25
9:49 am 09:49 Cloudy with Light Rain 63 17 63 17 100 100 VRB 3 6 30.00 1016 6 10 0.02 0.51
9:53 am 09:53 Cloudy with Light Rain 63 17.2 62 16.7 97 97 S 3 6 29.97 1015 6 10 0.02 0.51
10:53 am 10:53 Cloudy with Light Rain 64 17.8 62 16.7 93 93 VRB 3 6 29.98 1015 4 6 0.01 0.25
11:53 am 11:53 Mostly Cloudy 65 18.3 63 17.2 93 93 ESE 5 7 29.98 1015 10 16 0.02 0.51
12:08 pm 12:08 Cloudy 66 18.9 63 17.2 90 90 Calm 30.00 1016 10 16 0.00 0.00
12:23 pm 12:23 Cloudy 67 19.4 63 17.2 87 87 Calm 30.00 1016 10 16 0.00 0.00
12:53 pm 12:53 Mostly Cloudy 69 20.6 63 17.2 81 81 SE 6 9 29.97 1015 10 16 0.00 0.00
1:00 pm 13:00 Mostly Cloudy 70 21.1 62 16.7 76 76 VRB 3 6 30.00 1016 10 16 0.00 0.00
1:53 pm 13:53 Mostly Cloudy 71 21.7 61 16.1 71 71 SSE 7 11 29.95 1014 10 16 0.00 0.00
2:53 pm 14:53 Mostly Cloudy 72 22.2 59 15 64 64 VRB 5 7 29.93 1014 10 16 0.00 0.00
3:53 pm 15:53 Mostly Cloudy 73 22.8 60 15.6 64 64 VRB 3 6 29.90 1013 10 16 0.00 0.00
4:53 pm 16:53 Mostly Cloudy 73 22.8 59 15 62 62 VRB 6 9 29.89 1012 10 16 0.00 0.00
5:53 pm 17:53 Partly Cloudy 73 22.8 60 15.6 64 64 VRB 7 11 29.88 1012 10 16 0.00 0.00
6:53 pm 18:53 Mostly Sunny 73 22.8 60 15.6 64 64 SSW 5 7 29.87 1011 10 16 0.00 0.00
7:53 pm 19:53 Mostly Sunny 69 20.6 61 16.1 76 76 S 3 6 29.87 1012 10 16 0.00 0.00
8:53 pm 20:53 Mostly Cloudy 67 19.4 61 16.1 81 81 S 5 7 29.87 1012 10 16 0.00 0.00
9:05 pm 21:05 Cloudy with Nearby Thunderstorms 68 20 61 16.1 78 78 N 6 9 29.91 1013 10 16 0.00 0.00
9:31 pm 21:31 Cloudy 66 18.9 59 15 78 78 NNE 3 6 29.94 1014 10 16 0.00 0.00
9:50 pm 21:50 Cloudy with Nearby Thunderstorms 64 18 59 15 83 83 ENE 5 7 29.94 1014 10 16 0.00 0.00
9:53 pm 21:53 Mostly Cloudy with Nearby Thunderstorms 64 17.8 59 15 84 84 NE 6 9 29.91 1013 10 16 0.00 0.00
10:05 pm 22:05 Partly Cloudy 63 17.2 59 15 87 87 ESE 3 6 29.94 1014 10 16 0.00 0.00
10:53 pm 22:53 Mostly Cloudy 61 16.1 59 15 93 93 Calm 29.92 1013 10 16 0.00 0.00
11:53 pm 23:53 Partly Cloudy 60 15.6 58 14.4 93 93 Calm 29.94 1014 10 16 0.00 0.00

Powered by AerisWeather